• In Italy
  • List of Countries
  • For 7 days
  • Water Temperature
  • Satellite Maps
  • Weather Map
  • Weather Widgets
  • user-avatar
    Login

    Hourly Weather Simferopol'

    Today, 22 April, Sunday

    Time Temperature Precipitation Wind Pressure Humidity
    00:00 +8°C° 0 mm 5 mps 733 mmHg 61%
    01:00 +8°C° 0 mm 5 mps 732 mmHg 60%
    02:00 +8°C° 0 mm 6 mps 731 mmHg 60%
    03:00 +9°C° 0 mm 6 mps 731 mmHg 60%
    04:00 +9°C° 0 mm 6 mps 731 mmHg 60%
    05:00 +10°C° 0 mm 7 mps 731 mmHg 59%
    06:00 +11°C° 0.1 mm 7 mps 731 mmHg 61%
    07:00 +12°C° 0.1 mm 7 mps 731 mmHg 63%
    08:00 +14°C° 0 mm 6 mps 730 mmHg 65%
    09:00 +16°C° 0 mm 6 mps 731 mmHg 62%
    10:00 +17°C° 0 mm 6 mps 731 mmHg 59%
    11:00 +19°C° 0 mm 6 mps 731 mmHg 55%
    12:00 +20°C° 0 mm 6 mps 731 mmHg 51%
    13:00 +20°C° 0 mm 6 mps 731 mmHg 46%
    14:00 +20°C° 0 mm 6 mps 731 mmHg 41%
    15:00 +20°C° 0 mm 6 mps 731 mmHg 42%
    16:00 +19°C° 0 mm 5 mps 731 mmHg 43%
    17:00 +17°C° 0 mm 5 mps 731 mmHg 44%
    18:00 +15°C° 0 mm 4 mps 731 mmHg 50%
    19:00 +13°C° 0 mm 3 mps 732 mmHg 56%
    20:00 +12°C° 0 mm 3 mps 732 mmHg 61%
    21:00 +11°C° 0 mm 3 mps 732 mmHg 63%
    22:00 +12°C° 0 mm 2 mps 732 mmHg 65%
    23:00 +10°C° 0 mm 2 mps 733 mmHg 67%

    Tomorrow, 23 April, Monday

    Time Temperature Precipitation Wind Pressure Humidity
    00:00 +10°C° 0 mm 2 mps 733 mmHg 68%
    01:00 +10°C° 0 mm 2 mps 733 mmHg 69%
    02:00 +9°C° 0 mm 2 mps 733 mmHg 70%
    03:00 +9°C° 0 mm 2 mps 732 mmHg 72%
    04:00 +9°C° 0 mm 2 mps 732 mmHg 73%
    05:00 +9°C° 0 mm 2 mps 732 mmHg 74%
    06:00 +12°C° 0 mm 2 mps 733 mmHg 67%
    07:00 +14°C° 0 mm 2 mps 733 mmHg 61%
    08:00 +16°C° 0 mm 2 mps 733 mmHg 55%
    09:00 +17°C° 0 mm 3 mps 733 mmHg 49%
    10:00 +18°C° 0 mm 3 mps 734 mmHg 43%
    11:00 +19°C° 0 mm 3 mps 734 mmHg 37%
    12:00 +19°C° 0 mm 3 mps 734 mmHg 36%
    13:00 +20°C° 0 mm 3 mps 734 mmHg 35%
    14:00 +20°C° 0 mm 4 mps 734 mmHg 33%
    15:00 +19°C° 0 mm 3 mps 734 mmHg 36%
    16:00 +18°C° 0 mm 3 mps 733 mmHg 39%
    17:00 +18°C° 0 mm 3 mps 733 mmHg 42%
    18:00 +16°C° 0 mm 3 mps 734 mmHg 48%
    19:00 +13°C° 0 mm 3 mps 734 mmHg 54%
    20:00 +12°C° 0 mm 2 mps 734 mmHg 60%
    21:00 +12°C° 0 mm 2 mps 734 mmHg 61%
    22:00 +10°C° 0 mm 2 mps 735 mmHg 62%
    23:00 +10°C° 0 mm 2 mps 735 mmHg 63%

    Day after tomorrow, 24 April, Tuesday

    Time Temperature Precipitation Wind Pressure Humidity
    00:00 +10°C° 0 mm 2 mps 735 mmHg 63%
    01:00 +10°C° 0 mm 2 mps 735 mmHg 62%
    02:00 +9°C° 0 mm 2 mps 735 mmHg 61%
    03:00 +9°C° 0 mm 2 mps 735 mmHg 61%
    04:00 +9°C° 0 mm 2 mps 735 mmHg 61%
    05:00 +9°C° 0 mm 2 mps 735 mmHg 61%
    06:00 +12°C° 0 mm 2 mps 736 mmHg 56%
    07:00 +14°C° 0 mm 2 mps 736 mmHg 51%
    08:00 +16°C° 0 mm 2 mps 736 mmHg 46%
    09:00 +17°C° 0 mm 2 mps 737 mmHg 44%
    10:00 +18°C° 0 mm 3 mps 737 mmHg 42%
    11:00 +19°C° 0 mm 3 mps 737 mmHg 40%
    12:00 +20°C° 0 mm 4 mps 736 mmHg 40%
    13:00 +20°C° 0 mm 4 mps 736 mmHg 41%
    14:00 +20°C° 0 mm 5 mps 736 mmHg 41%
    15:00 +19°C° 0 mm 5 mps 735 mmHg 46%
    16:00 +17°C° 0 mm 5 mps 735 mmHg 51%
    17:00 +16°C° 0 mm 5 mps 735 mmHg 55%
    18:00 +15°C° 0 mm 5 mps 735 mmHg 60%
    19:00 +14°C° 0 mm 5 mps 735 mmHg 65%
    20:00 +12°C° 0 mm 5 mps 735 mmHg 70%
    21:00 +12°C° 0 mm 4 mps 735 mmHg 70%
    22:00 +12°C° 0 mm 4 mps 735 mmHg 71%
    23:00 +12°C° 0 mm 4 mps 735 mmHg 72%

    25 April, Wednesday

    Time Temperature Precipitation Wind Pressure Humidity
    00:00 +12°C° 0.2 mm 3 mps 735 mmHg 74%
    01:00 +12°C° 0.2 mm 3 mps 735 mmHg 77%
    02:00 +11°C° 0.2 mm 3 mps 735 mmHg 79%
    03:00 +11°C° 0 mm 3 mps 735 mmHg 80%
    04:00 +12°C° 0 mm 2 mps 735 mmHg 81%
    05:00 +12°C° 0 mm 2 mps 735 mmHg 82%
    06:00 +13°C° 0 mm 2 mps 735 mmHg 77%
    07:00 +15°C° 0 mm 2 mps 735 mmHg 73%
    08:00 +16°C° 0 mm 2 mps 736 mmHg 69%
    09:00 +18°C° 0 mm 2 mps 736 mmHg 63%
    10:00 +19°C° 0 mm 2 mps 736 mmHg 57%
    11:00 +21°C° 0 mm 2 mps 736 mmHg 51%
    12:00 +21°C° 0 mm 3 mps 736 mmHg 49%
    13:00 +21°C° 0 mm 3 mps 736 mmHg 47%
    14:00 +22°C° 0 mm 3 mps 736 mmHg 45%
    15:00 +21°C° 0 mm 3 mps 736 mmHg 47%
    16:00 +21°C° 0 mm 3 mps 736 mmHg 50%
    17:00 +20°C° 0 mm 3 mps 736 mmHg 53%
    18:00 +18°C° 0 mm 2 mps 736 mmHg 60%
    19:00 +16°C° 0 mm 2 mps 736 mmHg 67%
    20:00 +14°C° 0 mm 1 mps 736 mmHg 74%
    21:00 +14°C° 0 mm 1 mps 736 mmHg 75%
    22:00 +14°C° 0 mm 1 mps 736 mmHg 75%
    23:00 +13°C° 0 mm 1 mps 736 mmHg 76%

    26 April, Thursday

    Time Temperature Precipitation Wind Pressure Humidity
    00:00 +13°C° 0 mm 1 mps 736 mmHg 77%
    01:00 +13°C° 0 mm 1 mps 736 mmHg 78%
    02:00 +13°C° 0 mm 1 mps 735 mmHg 79%
    03:00 +12°C° 0 mm 1 mps 735 mmHg 79%
    04:00 +12°C° 0 mm 1 mps 735 mmHg 80%
    05:00 +12°C° 0 mm 1 mps 735 mmHg 80%
    06:00 +14°C° 0 mm 1 mps 735 mmHg 73%
    07:00 +16°C° 0 mm 1 mps 736 mmHg 65%
    08:00 +20°C° 0 mm 1 mps 736 mmHg 58%
    09:00 +20°C° 0 mm 2 mps 736 mmHg 54%
    10:00 +21°C° 0 mm 2 mps 736 mmHg 50%
    11:00 +23°C° 0 mm 2 mps 736 mmHg 45%
    12:00 +24°C° 0 mm 3 mps 736 mmHg 45%
    13:00 +24°C° 0 mm 3 mps 735 mmHg 44%
    14:00 +24°C° 0 mm 3 mps 735 mmHg 44%
    15:00 +22°C° 0 mm 3 mps 735 mmHg 47%
    16:00 +21°C° 0 mm 3 mps 735 mmHg 50%
    17:00 +20°C° 0 mm 3 mps 734 mmHg 54%
    18:00 +19°C° 0 mm 2 mps 734 mmHg 59%
    19:00 +17°C° 0 mm 2 mps 734 mmHg 65%
    20:00 +15°C° 0 mm 1 mps 734 mmHg 71%
    21:00 +15°C° 0 mm 1 mps 734 mmHg 71%
    22:00 +14°C° 0 mm 1 mps 734 mmHg 72%
    23:00 +14°C° 0 mm 1 mps 734 mmHg 72%

    27 April, Friday

    Time Temperature Precipitation Wind Pressure Humidity
    00:00 +14°C° 0 mm 2 mps 733 mmHg 71%
    01:00 +13°C° 0 mm 2 mps 733 mmHg 71%
    02:00 +13°C° 0 mm 2 mps 733 mmHg 70%
    03:00 +13°C° 0 mm 2 mps 733 mmHg 67%
    04:00 +13°C° 0 mm 2 mps 733 mmHg 65%
    05:00 +11°C° 0 mm 3 mps 733 mmHg 62%
    06:00 +15°C° 0 mm 2 mps 733 mmHg 56%
    07:00 +17°C° 0 mm 2 mps 733 mmHg 50%
    08:00 +19°C° 0 mm 2 mps 733 mmHg 44%
    09:00 +21°C° 0 mm 2 mps 733 mmHg 42%
    10:00 +24°C° 0 mm 2 mps 733 mmHg 39%
    11:00 +25°C° 0 mm 2 mps 733 mmHg 37%
    12:00 +25°C° 0 mm 2 mps 733 mmHg 37%
    13:00 +26°C° 0 mm 3 mps 732 mmHg 38%
    14:00 +26°C° 0 mm 3 mps 732 mmHg 39%
    15:00 +25°C° 0 mm 3 mps 732 mmHg 44%
    16:00 +24°C° 0 mm 3 mps 732 mmHg 49%
    17:00 +22°C° 0 mm 3 mps 732 mmHg 54%
    18:00 +20°C° 0 mm 2 mps 732 mmHg 61%
    19:00 +18°C° 0 mm 2 mps 732 mmHg 69%
    20:00 +15°C° 0 mm 2 mps 732 mmHg 76%
    21:00 +15°C° 0 mm 2 mps 732 mmHg 77%
    22:00 +15°C° 0 mm 2 mps 732 mmHg 78%
    23:00 +14°C° 0 mm 2 mps 732 mmHg 79%
    Show more